Regional Weather Roundup
Issued by NWS

Home | Current Version | Previous Version | Graphics & Text | Print | Product List | Glossary On
Versions: 1 2 3 4 5 6 7 8 9 10 11 12 13 14 15 16 17 18 19 20 21 22 23 24 25 26 27 28 29 30 31 32 33 34 35 36 37 38 39 40 41 42 43 44 45 46 47 48 49 50
000
ASUS43 KMKX 231400
RWRWI

WISCONSIN REGIONAL WEATHER ROUNDUP
NATIONAL WEATHER SERVICE MILWAUKEE/SULLIVAN WI
900 AM CDT MON OCT 23 2017

NOTE: "FAIR" INDICATES FEW OR NO CLOUDS BELOW 12,000 FEET WITH NO
SIGNIFICANT WEATHER AND/OR OBSTRUCTIONS TO VISIBILITY.

WIZ001-002-006>008-014>016-023>028-231500-
NORTHWEST WISCONSIN

CITY           SKY/WX    TMP DP  RH WIND       PRES   REMARKS
SUPERIOR ARPT  MOSUNNY   51  37  58 SW8       29.70R
ASHLAND        CLOUDY    52  38  58 S9        29.73R
HAYWARD        CLOUDY    50  38  63 S8        29.74F
SIREN          MOSUNNY   51  36  55 S8        29.73F
CUMBERLAND     MOSUNNY   45  37  76 S6        29.75F
RICE LAKE      MOSUNNY   45  40  83 CALM      29.78F
CHETEK         MOSUNNY   44  41  88 SE7       29.78S
LADYSMITH      CLOUDY    47  40  77 SE7       29.80S
EAU CLAIRE     NOT AVBL
MENOMONIE      SUNNY     44  40  88 NE5       29.79R
NEW RICHMOND   CLOUDY    50  36  59 SW7       29.75F
OSCEOLA        CLOUDY    50  36  59 S3        29.78S
$$

WIZ003>005-009-010-017-018-231500-
NORTH CENTRAL WISCONSIN

CITY           SKY/WX    TMP DP  RH WIND       PRES   REMARKS
MANITOWISH WTR MOSUNNY   44  42  94 S8        29.79S
ARBOR VITAE    SUNNY     45  41  85 S6        29.80F
WOODRUFF       SUNNY     45  41  85 S6        29.80F
RHINELANDER    SUNNY     43  40  89 SE5       29.83S
EAGLE RIVER    NOT AVBL
LAND O LAKES   MOSUNNY   43  41  91 S3        29.83F
PHILLIPS       PTSUNNY   46  40  79 S8        29.78F
TOMAHAWK       SUNNY     39  38  97 CALM      29.84R
MEDFORD        SUNNY     40  37  89 SE6       29.81S
MERRILL        CLOUDY    38  38 100 SE3       29.85R
$$

WIZ029-030-035-036-043>047-231500-
CENTRAL WISCONSIN

CITY           SKY/WX    TMP DP  RH WIND       PRES   REMARKS
WAUSAU         MOSUNNY   41  40  96 SE6       29.83F
MOSINEE        PTSUNNY   41  41 100 SE6       29.85F
MARSHFIELD     CLOUDY    43  39  86 S8        29.83R
STEVENS POINT  CLOUDY    40  40 100 SE5       29.86F
WAUPACA        FOG       41  40  97 CALM      29.89F VSB 1/4
WAUTOMA        FOG      N/A N/A N/A E3        29.87F VSB 1/4
WISC RAPIDS    CLOUDY    43  41  93 S6        29.86F
CAMP DOUGLAS   NOT AVBL
$$

WIZ011>013-019>022-031-037>040-048>050-231500-
NORTHEAST WISCONSIN

CITY           SKY/WX    TMP DP  RH WIND       PRES   REMARKS
ANTIGO         CLOUDY    40  40 100 S9        29.85F WCI  34
SHAWANO        FOG       42  41  96 CALM      29.89F VSB 1/4
OCONTO         CLOUDY    41  41 100 CALM      29.89F VSB<1/4
STURGEON BAY   FOG       44  44 100 CALM      29.89F VSB 1/2
GREEN BAY      FOG       44  44 100 CALM      29.88F VSB 1/4
MANITOWOC      CLOUDY    45  44  97 CALM      29.89F
APPLETON       PTSUNNY   45  45 100 CALM      29.87F
CLINTONVILLE   FOG       39  39 100 CALM      29.89F VSB<1/4
OSHKOSH        MOSUNNY   46  45  96 CALM      29.87F
$$

WIZ032>034-041-042-053>061-231500-
SOUTHWEST WISCONSIN

CITY           SKY/WX    TMP DP  RH WIND       PRES   REMARKS
LA CROSSE      CLOUDY    50  44  80 S15       29.82S
SPARTA         MOSUNNY   39  39  97 CALM      29.85S
VIROQUA        CLOUDY    45  42  89 S9        29.85F
BOSCOBEL       FOG       42  41  96 CALM      29.87F VSB 1/4
PRAIRIE DU CHI CLOUDY    44  41  89 E3        29.87F
PLATTEVILLE    CLOUDY    44  44 100 SE3       29.87F
$$

WIZ056-057-062-063-064-067-068-231500-
SOUTH CENTRAL WISCONSIN

CITY           SKY/WX    TMP DP  RH WIND       PRES   REMARKS
REEDSBURG      CLOUDY    42  42 100 CALM      29.86F
BARABOO/DELLS  CLOUDY    41  41  98 CALM      29.86F
LONE ROCK      FOG       41  41 100 CALM      29.85F VSB 1/4
MINERAL POINT  CLOUDY    45  45 100 CALM      29.86F
MADISON        CLOUDY    44  43  96 CALM      29.86F
MIDDLETON      CLOUDY    43  43 100 W3        29.88F
WATERTOWN      CLOUDY    44  44 100 CALM      29.88F FOG
MONROE         CLOUDY    46  43  87 NW5       29.87F
JANESVILLE     PTSUNNY   46  46 100 CALM      29.87F FOG
$$

WIZ051-052-058>065-066-070>072-231500-
SOUTHEAST WISCONSIN

CITY           SKY/WX    TMP DP  RH WIND       PRES   REMARKS
MILWAUKEE      CLOUDY    51  48  89 NE6       29.86F
WAUKESHA       SUNNY     46  45  93 NW5       29.88F
MILWAUKEE/TIMM MOSUNNY   48  45  87 CALM      29.88F
RACINE         LGT RAIN  51  49  92 N8        29.87F
BURLINGTON     CLOUDY    48  48 100 CALM      29.87S
KENOSHA        CLOUDY    50  47  89 NE6       29.86F
FOND DU LAC    CLOUDY    46  43  89 CALM      29.88F
SHEBOYGAN      PTSUNNY   46  46 100 NW3       29.88F FOG
WEST BEND      CLOUDY    45  45 100 CALM      29.88F FOG
JUNEAU         CLOUDY    43  43  99 CALM      29.90F FOG
$$

LSZ147-162-231500-
LAKE SUPERIOR

STATION/POSITION TIME  TEMP    WIND        PRES    WAVE
                       AIR SEA DIR/SP/G            HT/PER
                 (UTC) (F)     (DEG/KT/KT) (MB)    (FT/S)
W MID LAKE BUOY  1250   52 51              1006.6F   2/ 5
DEVILS ISLAND    1300   54     190/  7/ 11 1006.2F
PORT WING        1140          170/ 12/ 22 1005.1F
SAXON HARBOR     1340   55     200/ 10/ 17 1006.1S
$$

LMZ867-665-643>646-231500-
LAKE MICHIGAN

STATION/POSITION TIME  TEMP    WIND        PRES    WAVE
                       AIR SEA DIR/SP/G            HT/PER
                 (UTC) (F)     (DEG/KT/KT) (MB)    (FT/S)
S GREEN BAY BUOY 1330   50 58  330/  2/  2 1012.5F
N MID LAKE BUOY  1250   52 57  240/  6/  6 1013.6F   1
NORTHPORT PIER   1340   46        CALM     1012.2F
KEWAUNEE LAKESHO 1324   44     310/  1/  3 1012.0
SHEBOYGAN LAKESH 1300   48      80/  2/  2 1012.5F
PORT WASHINGTON  1340   49     320/  3/  4 1012.9F
MILWAUKEE LAKESH 1330   51      10/  6/  9   N/A
S MID LAKE BUOY  1250   55 60   10/ 19/ 21 1011.3F   3/ 4
KENOSHA   LAKESH 1300   51      10/ 15/ 17 1011.9
$$

TC  - TEMPERATURE IN CELSIUS
VSB - VISIBILITY IN STATUTE MILES
WCI - WIND CHILL INDEX
HX  - HEAT INDEX




USA.gov is the U.S. government's official web portal to all federal, state and local government web resources and services.